Location: *
(22.5000°S, 144.7130°W)
Time: 15:36:27
(UTC+00:00)

Daily predictions for brighter satellites

Satellite Brightness Start Highest point End
(mag) Time Altitude Azimuth Time Altitude Azimuth Time Altitude Azimuth
ACS3 Solar Sail 4.2 12:45:25 10° ENE 12:48:34 17° ESE 12:48:34 17° ESE
Atlas Centaur 2 3.9 13:21:25 34° E 13:21:25 34° E 13:25:34 10° E
Cosmos 1943 4.3 13:41:00 40° ENE 13:41:00 40° ENE 13:45:04 10° NE
NOSS 3-1 (A) 4.1 13:54:31 38° ESE 13:54:31 38° ESE 13:58:28 10° NE
SJ 16-02 3.3 13:52:04 10° NNE 13:55:39 27° E 13:59:18 10° SE
USA 59 Rocket 1.8 13:56:55 34° S 14:00:18 56° ESE 14:06:24 10° NE
ATLAS 5 CENTAUR R/B 2.6 14:06:05 78° WSW 14:06:09 78° WSW 14:13:28 10° SSE
Cosmos 1633 Rocket 4.1 14:09:41 43° E 14:09:41 43° E 14:13:43 10° NNE
ATLAS 2A CENTAUR R/B 4.4 14:10:12 49° WSW 14:14:03 88° NNW 15:05:58 10° ENE
Cosmos 676 Rocket 4.0 14:15:46 10° N 14:21:00 81° ENE 14:26:20 10° SSE
SL-4 R/B 4.2 14:28:26 13° NNE 14:28:26 13° NNE 14:28:49 10° NNE
SeaSat 1 4.1 14:22:46 10° SSE 14:24:23 21° S 14:24:23 21° S
ACS3 Solar Sail 1.9 14:25:48 10° N 14:31:53 53° W 14:33:03 47° WSW
EPKM 3.7 14:34:43 33° NNE 14:34:43 33° NNE 14:36:09 10° NE
Cosmos 1666 Rocket 3.9 14:35:57 50° NW 14:35:57 50° NW 14:39:25 10° N
MOS 1-B Rocket 4.0 14:31:00 10° N 14:36:34 46° W 14:36:40 46° W
SL-16 R/B 4.3 14:32:01 10° S 14:43:27 10° NW 14:33:02 15° S
Helios 1A Rocket 3.0 14:42:33 48° NNW 14:42:33 48° NNW 14:45:10 10° NNW
Cosmos 1603 3.6 14:38:46 26° SSW 14:42:06 89° ESE 14:47:42 10° NNE
Cosmos 968 Rocket 4.4 14:40:42 10° N 14:45:34 49° ENE 14:50:30 10° SSE
CRYOSAT 2 4.4 14:41:12 10° N 14:46:05 82° E 14:51:01 10° S
SAR-Lupe-4 3.5 14:43:37 10° N 14:46:53 65° NW 14:46:53 65° NW
EXPRESS MD2 3.1 14:47:17 62° W 14:47:45 71° NW 14:50:45 10° NNE
Intelsat 5-3 Rocket 2.3 14:50:00 42° NE 14:50:00 42° NE 14:51:52 10° E
Thor Agena Rocket 3.4 14:47:57 10° N 14:52:54 62° WNW 14:56:22 20° SSW
CBERS-1 4.0 14:49:01 10° N 14:54:00 58° WNW 14:57:30 20° SSW
Tiangong -0.5 14:51:57 16° NNW 14:54:05 35° NE 14:57:06 10° ESE
Cosmos 1763 Rocket 3.4 14:51:23 18° SSW 14:55:25 78° WNW 15:00:38 10° N
USA 215 3.8 14:51:29 10° SSE 14:57:18 34° SW 14:59:49 26° W
CZ-2D R/B 4.1 14:55:18 10° NNE 14:58:23 40° ESE 15:01:32 10° S
Milstar 3 3.5 14:52:30 26° WSW 14:59:26 70° NNW 15:06:37 10° ENE
Cosmos 1809 Rocket 4.4 14:54:17 10° N 15:00:26 75° W 15:06:41 10° S
IGS 5A 4.3 14:57:21 10° NNE 15:01:12 47° ESE 15:05:05 10° S
Meteor 1-15 Rocket 4.3 14:55:50 10° S 15:01:42 82° E 15:07:22 10° N
Cosmos 304 Rocket 3.7 14:57:04 10° NNW 15:01:48 88° WSW 15:06:35 10° SSE
Cosmos 1892 4.4 15:00:16 10° NNE 15:02:49 26° E 15:05:23 10° SSE
Okean 3 4.3 15:00:55 10° NNE 15:04:54 50° E 15:08:56 10° SSE
CZ-3B Rocket 3.5 15:01:23 21° WNW 15:04:56 68° N 15:27:59 10° E
Cosmos 1943 Rocket 3.3 15:01:07 10° N 15:06:30 47° ENE 15:11:53 10° SSE
SEDSat Delta rocket 4.0 15:02:55 25° SW 15:06:35 60° SSE 15:12:09 10° E
Atlas Centaur 2 3.0 15:03:26 25° W 15:07:25 57° NNW 15:15:03 10° NE
GPS 2-17 Rocket1 4.0 15:06:17 22° WNW 15:08:40 38° NNW 15:12:59 10° NE
SMAP 3.7 15:04:13 10° NNE 15:08:47 57° ESE 15:13:23 10° S
Cosmos 1470 Rocket 3.7 15:06:25 16° SSW 15:09:35 47° W 15:13:43 10° NNW
FALCON 9 R/B 3.9 14:57:36 19° W 15:10:00 47° SSW 15:15:50 10° SE
Meteor 1-22 Rocket 4.1 15:08:02 10° SSW 15:13:16 57° W 15:18:26 10° N
SL-24 R/B - RUBIN 2 4.5 15:10:36 10° SSW 15:17:04 78° WNW 15:23:38 10° NNE
Cosmos 1850 Rocket 4.0 15:12:05 10° NNW 15:17:24 81° WSW 15:22:45 10° SSE
Cosmos 1933 Rocket 3.6 15:15:32 10° S 15:20:00 88° ESE 15:24:24 10° N
Palapa 6 Rocket 2.9 15:21:19 18° W 15:24:49 86° S 15:28:54 10° E
deb Centaur AC-2 4.2 15:21:29 18° WSW 15:25:16 84° SSE 15:29:46 10° ENE
IRS-1C 4.1 15:20:29 10° N 15:25:47 74° WNW 15:31:09 10° SSW
Hubble Space Telescope 2.6 15:27:32 10° NNW 15:30:50 27° NNE 15:34:10 10° E
Cosmos 2123 Rocket 4.2 15:25:56 10° NNW 15:32:00 50° W 15:38:11 10° S
Cosmos 468 Rocket 4.0 15:27:22 10° SSW 15:32:36 62° WNW 15:37:44 10° N
Cosmos 2100 Rocket 4.0 15:26:24 10° SSW 15:32:38 65° W 15:38:45 10° N
SJ 16-02 2.9 15:31:20 10° WNW 15:33:43 15° WSW 15:36:09 10° SW
AQUARIUS 4.5 15:31:34 10° NNE 15:35:58 69° ESE 15:40:23 10° S
Cosmos 1869 Rocket 3.6 15:32:13 10° S 15:36:42 87° E 15:41:05 10° N
DELTA 2 R/B (1) 3.6 15:33:12 10° WNW 15:38:48 77° SW 15:44:27 10° SE
CZ-2D R/B 4.2 15:35:24 10° NNE 15:39:26 54° ESE 15:43:25 10° S
Landsat 7 4.3 15:35:48 10° NNE 15:40:23 62° ESE 15:45:02 10° S
CZ-3C R/B 3.6 15:37:48 10° W 15:42:19 68° N 16:15:50 10° ENE
Cosmos 2084 4.1 15:39:51 10° SSW 15:44:11 59° ESE 15:48:29 10° NE
USA 59 Rocket 2.5 15:43:35 10° WSW 15:48:33 19° W 15:52:39 10° NW
Cosmos 1862 Rocket 3.6 15:45:24 10° N 15:49:49 84° W 15:54:19 10° S
Cosmos 2016 Rocket 4.1 15:43:45 10° S 15:50:00 87° W 15:56:17 10° N
Cosmos 1703 3.6 15:46:53 10° NNW 15:50:01 33° W 15:53:11 10° SSW
ATLAS 5 CENTAUR R/B 4.3 15:47:15 10° WSW 15:50:06 12° SW 15:52:58 10° SSW
Cosmos 332 Rocket 4.0 15:46:29 10° N 15:51:17 81° ENE 15:56:10 10° SSE
Okean 2 4.2 15:47:53 10° NW 15:51:17 28° W 15:54:45 10° SSW
ARIANE 5 R/B 3.3 15:50:12 10° NNW 15:54:53 34° W 15:59:37 10° SW
